Location: ?????
(38.3715°N, 23.0573°E)
Time: 03:04:27
(UTC+00:00)

Cosmos 2322 Rocket - Pass Details

Date: 03 August 2024
Orbit: 830 x 851 km, 71.0° (Epoch: 10 September)

Event Time Altitude Azimuth Distance (km) Brightness Sun altitude
Exits shadow 23:05:27 20° 77° (ENE) 1,859 4.1 -34.0°
Drops below altitude 10° 23:08:08 10° 51° (NE) 2,472 5.1 -33.9°
Sets 23:11:04 0° 37° (NE) 3,415 6.2 -33.8°
